Location: Eitze
(52.9840°N, 9.6894°E)
Time: 05:52:18
(UTC+00:00)

CZ-4 R/B - Pass Details

Date: 19 May 2025
Orbit: 499 x 550 km, 97.6° (Epoch: 22 June)

Event Time Altitude Azimuth Distance (km) Brightness Sun altitude
Rises 20:27:16 0° 223° (SW) 2,719 4.8 -8.3°
Reaches altitude 10° 20:31:46 10° 271° (W) 1,828 4.6 -8.7°
Maximum altitude 20:32:01 10° 275° (W) 1,825 4.7 -8.7°
Drops below altitude 10° 20:32:16 10° 279° (W) 1,828 4.7 -8.7°
Sets 20:36:46 0° 327° (NNW) 2,719 7.2 -9.2°
